Location: Unspecified
(0.0000°N, 0.0000°E)
Time: 00:31:59
(UTC+02:00)

CZ-4B DEB - Visible Passes

Search period start: 27 May 2016 00:00
Search period end: 06 June 2016 00:00
Orbit: 438 x 443 km, 97.5° (Epoch: 25 May)

Date Brightness Start Highest point End Pass type
(mag) Time Alt. Az. Time Alt. Az. Time Alt. Az.
27 May 4.6 21:50:49 32° WNW 21:50:49 32° WNW 21:53:05 10° NNW visible
28 May 3.7 21:12:30 33° ENE 21:12:30 33° ENE 21:15:10 10° NNE visible
29 May 5.7 22:07:36 18° WNW 22:07:36 18° WNW 22:09:05 10° NW visible
30 May 3.1 21:29:13 57° NNE 21:29:13 57° NNE 21:31:59 10° N visible
31 May 4.7 20:50:49 15° ENE 20:50:49 15° ENE 20:52:43 10° NE visible
01 Jun 4.1 21:45:50 41° WNW 21:45:50 41° WNW 21:48:20 10° NNW visible
02 Jun 3.9 21:07:22 27° ENE 21:07:22 27° ENE 21:10:00 10° NNE visible
03 Jun 5.3 22:02:19 22° WNW 22:02:19 22° WNW 22:04:14 10° NW visible
04 Jun 3.1 21:23:48 50° NE 21:23:48 50° NE 21:26:39 10° N visible
05 Jun 5.0 20:45:15 12° E 20:45:20 12° E 20:46:35 10° ENE visible
05 Jun 6.1 22:18:41 12° W 22:18:41 12° W 22:19:25 10° WNW visible
